Huntington, WV

9:09 PM EDT on April 24, 2017 (GMT -0400)
Tri-State / Ferguson

Weather History for KHTS - September, 2011

Change the Weather History Date:

Monday, September 26, 2011

  Actual Average Record
Temperature  
Mean Temperature 67 °F 64 °F  
Max Temperature 80 °F 75 °F 95 °F (1908)
Min Temperature 53 °F 52 °F 37 °F (1899)
Degree Days  
Heating Degree Days 0 4  
Month to date heating degree days 38 37  
Since 1 July heating degree days 38 39  
Cooling Degree Days 2 2  
Month to date cooling degree days 111 125  
Year to date cooling degree days 1237 1102  
Growing Degree Days 15 (Base 50)    
Moisture  
Dew Point 59 °F    
Average Humidity 82    
Maximum Humidity 100    
Minimum Humidity 64    
Precipitation  
Precipitation 0.49 in 0.09 in 2.46 in (2002)
Month to date precipitation 4.40 2.43  
Year to date precipitation 48.10 32.68  
Snow  
Snow 0.00 in - - ()
Month to date snowfall 0.0  
Since 1 September snowfall 0.0  
Snow Depth 0.00 in    
Sea Level Pressure  
Sea Level Pressure 29.84 in    
Wind  
Wind Speed 5 mph (SSW)    
Max Wind Speed 22 mph    
Max Gust Speed 31 mph    
Visibility 7 miles    
Events Fog , Rain , Thunderstorm    
T = Trace of Precipitation, MM = Missing Value Source: NWS Daily Summary

Daily Weather History Graph

Daily Weather History Graph

Search for Another Location

Airport or City:

Trip Planner

Search our weather history database for the weather conditions in past years. The results will help you decide how hot, cold, wet, or windy it might be!

Date:

Astronomy

Sep. 26, 2011 Rise Set
Actual Time 7:21 AM EDT 7:21 PM EDT
Civil Twilight 6:54 AM EDT 7:47 PM EDT
Nautical Twilight 6:24 AM EDT 8:18 PM EDT
Astronomical Twilight 5:52 AM EDT 8:49 PM EDT
Moon 6:19 AM EDT (9/26) 6:36 PM EDT (9/26)
Length of Visible Light 12h 52m
Length of Day
12h 00m
Waning Crescent, 1% of the Moon is Illuminated
Sep 26
Waning Crescent
Sep 27
New
Oct 3
First Quarter
Oct 11
Full
Oct 19
Last Quarter

Hourly Weather History & Observations

Time (EDT) Temp. Dew Point Humidity Pressure Visibility Wind Dir Wind Speed Gust Speed Precip Events Conditions
12:51 AM 68.0 °F 62.1 °F 81% 29.84 in 10.0 mi ESE 4.6 mph - N/A   Clear
1:51 AM 66.9 °F 62.1 °F 84% 29.82 in 10.0 mi East 4.6 mph - N/A   Clear
2:51 AM 66.0 °F 62.1 °F 87% 29.81 in 10.0 mi East 4.6 mph - N/A   Clear
3:51 AM 66.0 °F 62.1 °F 87% 29.78 in 10.0 mi ESE 5.8 mph - N/A   Clear
4:51 AM 66.9 °F 62.1 °F 84% 29.76 in 10.0 mi ESE 5.8 mph - N/A   Clear
5:51 AM 69.1 °F 61.0 °F 75% 29.75 in 10.0 mi ESE 9.2 mph - N/A   Clear
6:51 AM 69.8 °F 60.8 °F 73% 29.78 in 10.0 mi SE 5.8 mph - N/A   Partly Cloudy
7:51 AM 70.0 °F 61.0 °F 73% 29.76 in 10.0 mi SE 4.6 mph - N/A   Scattered Clouds
8:51 AM 71.1 °F 62.1 °F 73% 29.77 in 10.0 mi SSE 6.9 mph - N/A   Clear
9:51 AM 73.0 °F 63.0 °F 71% 29.78 in 10.0 mi SSE 4.6 mph - N/A   Clear
10:51 AM 77.0 °F 64.0 °F 64% 29.79 in 10.0 mi South 9.2 mph 20.7 mph N/A   Partly Cloudy
11:51 AM 77.0 °F 64.0 °F 64% 29.79 in 10.0 mi South 8.1 mph - N/A   Clear
12:51 PM 75.9 °F 64.9 °F 69% 29.79 in 10.0 mi West 13.8 mph 24.2 mph N/A   Scattered Clouds
12:58 PM 69.8 °F 64.4 °F 83% 29.83 in 5.0 mi WNW 11.5 mph 31.1 mph 0.01 in Rain , Thunderstorm Rain
1:09 PM 66.2 °F 64.4 °F 94% 29.84 in 2.0 mi Variable 6.9 mph 18.4 mph 0.07 in Rain , Thunderstorm Thunderstorms and Rain
1:41 PM 66.2 °F 62.6 °F 88% 29.85 in 10.0 mi WNW 10.4 mph - 0.09 in   Overcast
1:51 PM 66.9 °F 63.0 °F 87% 29.83 in 10.0 mi WNW 10.4 mph 18.4 mph 0.09 in   Mostly Cloudy
2:51 PM 66.0 °F 57.9 °F 75% 29.83 in 10.0 mi WNW 8.1 mph 16.1 mph N/A   Mostly Cloudy
3:51 PM 63.0 °F 55.9 °F 78% 29.84 in 8.0 mi Calm Calm - 0.00 in Rain Light Rain
4:20 PM 60.8 °F 57.2 °F 88% 29.87 in 4.0 mi WNW 3.5 mph - 0.02 in Rain Light Rain
4:22 PM 60.8 °F 57.2 °F 88% 29.87 in 1.5 mi Calm Calm - 0.02 in Rain Light Rain
4:30 PM 60.8 °F 57.2 °F 88% 29.86 in 0.5 mi NW 3.5 mph - 0.16 in Fog , Rain Heavy Rain
4:40 PM 59.0 °F 57.2 °F 94% 29.85 in 1.5 mi NNW 3.5 mph - 0.24 in Rain Heavy Rain
4:51 PM 59.0 °F 57.2 °F 94% 29.84 in 1.5 mi North 4.6 mph - N/A Rain Rain
5:17 PM 60.8 °F 59.0 °F 94% 29.85 in 2.0 mi SW 3.5 mph - 0.02 in Rain Light Rain
5:29 PM 60.8 °F 59.0 °F 94% 29.85 in 1.0 mi SW 3.5 mph - 0.02 in Rain Light Rain
5:51 PM 60.1 °F 59.0 °F 96% 29.85 in 2.0 mi SSW 3.5 mph - 0.06 in Rain Light Rain
6:51 PM 57.9 °F 55.0 °F 90% 29.84 in 2.0 mi SSW 10.4 mph - 0.05 in Rain Light Rain
6:58 PM 57.2 °F 53.6 °F 88% 29.85 in 7.0 mi SW 5.8 mph - 0.00 in   Overcast
7:10 PM 57.2 °F 55.4 °F 94% 29.85 in 6.0 mi SSW 4.6 mph - 0.01 in Rain Light Rain
7:51 PM 55.9 °F 55.0 °F 97% 29.86 in 10.0 mi SSW 5.8 mph - 0.01 in   Overcast
8:49 PM 55.4 °F 55.4 °F 100% 29.89 in 10.0 mi SSW 4.6 mph - N/A   Overcast
8:51 PM 57.0 °F 55.0 °F 93% 29.88 in 10.0 mi SSW 4.6 mph - N/A   Overcast
9:51 PM 55.9 °F 55.0 °F 97% 29.90 in 10.0 mi Calm Calm - N/A   Partly Cloudy
10:48 PM 55.4 °F 53.6 °F 94% 29.93 in 1.8 mi Calm Calm - N/A   Clear
10:51 PM 55.4 °F 53.6 °F 94% 29.92 in 10.0 mi Calm Calm - N/A   Clear
11:36 PM 53.6 °F 53.6 °F 100% 29.92 in 10.0 mi Calm Calm - N/A   Partly Cloudy
11:51 PM 53.6 °F 53.6 °F 100% 29.92 in 10.0 mi Calm Calm - N/A   Scattered Clouds
11:58 PM 53.6 °F 53.6 °F 100% 29.92 in 0.8 mi ESE 3.5 mph - N/A   Mist